Regional Weather Roundup
Issued by NWS

Home | Current Version | Previous Version | Graphics & Text | Print | Product List | Glossary On
Versions: 1 2 3 4 5 6 7 8 9 10 11 12 13 14 15 16 17 18 19 20 21 22 23 24 25 26 27 28 29 30 31 32 33 34 35 36 37 38 39 40 41 42 43 44 45 46 47 48 49 50
000
ASUS43 KMKX 080811
RWRWI

WISCONSIN REGIONAL WEATHER ROUNDUP
NATIONAL WEATHER SERVICE MILWAUKEE/SULLIVAN WI
200 AM CST THU DEC 08 2016

NOTE: "FAIR" INDICATES FEW OR NO CLOUDS BELOW 12,000 FEET WITH NO
SIGNIFICANT WEATHER AND/OR OBSTRUCTIONS TO VISIBILITY.

WIZ001-002-006>008-014>016-023>028-080900-
NORTHWEST WISCONSIN

CITY           SKY/WX    TMP DP  RH WIND       PRES   REMARKS
SUPERIOR ARPT  CLOUDY    24  19  82 NW9       30.03R WCI  14
ASHLAND        LGT SNOW  19  16  88 SW12      29.97R FOG     WCI   7
HAYWARD        LGT SNOW  17  12  80 W6        29.99R WCI   9
SIREN          LGT SNOW  17  13  84 W13       30.06S WCI   4
CUMBERLAND     FLURRIES  14  10  85 W12G17    30.04R WCI   0
RICE LAKE      FLURRIES  16  12  84 W13       30.07R WCI   2
CHETEK         CLOUDY    16  11  81 W9G17     30.06R WCI   4
LADYSMITH      CLOUDY    16  12  82 W10G16    30.02S WCI   4
EAU CLAIRE     LGT SNOW  15  11  83 W12       30.09R FOG     WCI   2
MENOMONIE      FLURRIES  17  12  81 W12G20    30.10R WCI   4
NEW RICHMOND   LGT SNOW  15  11  81 W12       30.11R WCI   2
OSCEOLA        LGT SNOW  17  13  85 W8        30.14S WCI   6
$$

WIZ003>005-009-010-017-018-080900-
NORTH CENTRAL WISCONSIN

CITY           SKY/WX    TMP DP  RH WIND       PRES   REMARKS
MANITOWISH WTR LGT SNOW  15  13  92 W10       29.89S WCI   2
ARBOR VITAE    LGT SNOW  17  13  84 W12G17    29.90R WCI   4
WOODRUFF       LGT SNOW  17  13  84 W12G17    29.90R WCI   4
RHINELANDER    FLURRIES  14   9  80 W15       29.92R WCI  -1
EAGLE RIVER    LGT SNOW  15   9  80 W13       29.88S WCI   0
LAND O LAKES   LGT SNOW  15  11  84 W9        29.87S WCI   4
PHILLIPS       FLURRIES  13  11  90 W9        29.94S WCI   1
TOMAHAWK       FLURRIES  12   8  82 W7        29.95R WCI   2
MEDFORD        LGT SNOW  13   8  83 W10       29.98S WCI  -1
MERRILL        LGT SNOW  14  10  81 W15       29.98R WCI  -1
$$

WIZ029-030-035-036-043>047-080900-
CENTRAL WISCONSIN

CITY           SKY/WX    TMP DP  RH WIND       PRES   REMARKS
WAUSAU         FLURRIES  14   9  80 W17       29.99R WCI  -3
MOSINEE        MOCLDY    14  10  85 W14       30.01R WCI  -1
MARSHFIELD     FLURRIES  14   8  77 W17G25    30.02R WCI  -3
STEVENS POINT  FLURRIES  15   9  76 W13       30.03R WCI   1
WAUPACA        CLOUDY    21  11  66 W16G24    30.05R WCI   7
WAUTOMA        FLURRIES  19  13  77 W13       30.07R WCI   6
WISC RAPIDS    FLURRIES  17  11  77 W15G21    30.06R WCI   2
CAMP DOUGLAS   FLURRIES  17  10  75 W15       30.10R WCI   2
$$

WIZ011>013-019>022-031-037>040-048>050-080900-
NORTHEAST WISCONSIN

CITY           SKY/WX    TMP DP  RH WIND       PRES   REMARKS
ANTIGO         FLURRIES  13   9  84 W14       29.95R WCI  -2
SHAWANO        CLOUDY    21  11  66 W9G22     30.01S WCI  11
OCONTO         CLOUDY    20  10  64 W16G24    29.99R WCI   6
STURGEON BAY   FLURRIES  21  12  68 W17G25    29.97R WCI   7
GREEN BAY      FLURRIES  23  13  65 W21G28    30.01S WCI   8
MANITOWOC      FLURRIES  22  14  71 MISG      30.02S
APPLETON       FLURRIES  21  12  68 W21       30.01R WCI   6
CLINTONVILLE   FLURRIES  21  12  68 W15G22    30.02R WCI   8
OSHKOSH        CLOUDY    21  12  68 W12       30.04R WCI   9
$$

WIZ032>034-041-042-053>061-080900-
SOUTHWEST WISCONSIN

CITY           SKY/WX    TMP DP  RH WIND       PRES   REMARKS
LA CROSSE      CLOUDY    18   8  65 W16G23    30.17R WCI   3
SPARTA         FLURRIES  17  11  79 W8        30.13R WCI   6
VIROQUA        CLOUDY    14  10  84 W16       30.11S WCI  -2
BOSCOBEL       CLOUDY    16   7  67 W10G24    30.20R WCI   4
PRAIRIE DU CHI CLOUDY    15   6  67 W15G22    30.22S WCI  -1
PLATTEVILLE    CLEAR     15   9  76 W17G30    30.17S WCI  -1
$$

WIZ056-057-062-063-064-067-068-080900-
SOUTH CENTRAL WISCONSIN

CITY           SKY/WX    TMP DP  RH WIND       PRES   REMARKS
REEDSBURG      CLOUDY    18  10  72 W14       30.10S WCI   4
BARABOO/DELLS  CLOUDY    18  10  71 W12G18    30.09S WCI   6
LONE ROCK      CLOUDY    18   8  65 W16G23    30.16R WCI   3
MINERAL POINT  FLURRIES  18  12  79 W17G24    30.13S WCI   2
MADISON        MOCLDY    19   9  65 MISG      30.11R
MIDDLETON      CLOUDY    20  12  71 W16       30.12R WCI   6
WATERTOWN      CLOUDY    20  13  73 W12G17    30.09R WCI   8
MONROE         CLOUDY    19  12  73 W28G36    30.12R HAZE    WCI   1
JANESVILLE     FLURRIES  23  14  68 W21G26    30.13R WCI   8
$$

WIZ051-052-058>065-066-070>072-080900-
SOUTHEAST WISCONSIN

CITY           SKY/WX    TMP DP  RH WIND       PRES   REMARKS
MILWAUKEE      FLURRIES  24  13  62 W9        30.09R WCI  14
WAUKESHA       CLOUDY    19  12  73 W13G23    30.09R WCI   7
MILWAUKEE/TIMM CLOUDY    21  10  63 W17G25    30.09R WCI   7
RACINE         FLURRIES  23  14  68 W9        30.11R WCI  13
BURLINGTON     FLURRIES  21  13  71 W14G20    30.11R WCI   8
KENOSHA        CLOUDY    22  13  68 W16G25    30.10R WCI   8
FOND DU LAC    CLOUDY    21  10  62 W12G23    30.05S WCI   9
SHEBOYGAN      CLOUDY    21  12  68 W15       30.04S WCI   8
WEST BEND      CLOUDY    21  12  68 W20G26    30.05S WCI   6
JUNEAU         CLOUDY    19  11  73 W13G18    30.08S WCI   6
$$

LSZ147-162-080900-
LAKE SUPERIOR

STATION/POSITION TIME  TEMP    WIND        PRES    WAVE
                       AIR SEA DIR/SP/G            HT/PER
                 (UTC) (F)     (DEG/KT/KT) (MB)    (FT/S)
DEVILS ISLAND    0800   28     340/ 22/ 27 1015.1R
PORT WING        0740   27     320/ 18/ 24 1015.6R
SAXON HARBOR     0730   20     230/  9/ 13 1014.2R
$$

LMZ867-665-643>646-080900-
LAKE MICHIGAN

STATION/POSITION TIME  TEMP    WIND        PRES    WAVE
                       AIR SEA DIR/SP/G            HT/PER
                 (UTC) (F)     (DEG/KT/KT) (MB)    (FT/S)
CHAMBERS ISLAND  0740   22     230/ 11/ 22 1013.5S
NORTHPORT PIER   0740   24     250/  6/ 16 1013.2S
SISTER BAY       0751   25     300/ 22/ 28   N/A
ALGOMA LAKESHORE 0721          260/ 14/ 18   N/A
KEWAUNEE LAKESHO 0748   22     330/ 14/ 18 1015.1R
SHEBOYGAN LAKESH 0800   22     260/ 13/ 15 1018.1S
PORT WASHINGTON  0730   22     270/ 10/ 16 1019.3S
MILWAUKEE LAKESH 0750   23     280/ 12/ 18   N/A
KENOSHA   LAKESH 0800   23     280/ 14/ 28 1019.6
$$

TC  - TEMPERATURE IN CELSIUS
VSB - VISIBILITY IN STATUTE MILES
WCI - WIND CHILL INDEX
HX  - HEAT INDEX





USA.gov is the U.S. government's official web portal to all federal, state and local government web resources and services.